Weather History for KOFF - January, 2013

Change the Weather History Date:

Sunday, January 27, 2013

  Actual Average Record
Temperature  
Mean Temperature 38 °F -  
Max Temperature 42 °F 32 °F 60 °F (2002)
Min Temperature 33 °F 15 °F -7 °F (2004)
Degree Days  
Heating Degree Days 28    
Moisture  
Dew Point 38 °F    
Average Humidity 97    
Maximum Humidity 100    
Minimum Humidity 52    
Precipitation  
Precipitation 0.22 in - - ()
Sea Level Pressure  
Sea Level Pressure 29.83 in    
Wind  
Wind Speed 10 mph (ESE)    
Max Wind Speed 15 mph    
Max Gust Speed 18 mph    
Visibility 5 miles    
Events Fog , Rain    
Averages and records for this station are not official NWS values.
T = Trace of Precipitation, MM = Missing Value Source: NWS Daily Summary

Daily Weather History Graph

Daily Weather History Graph

Search for Another Location

Airport or City:

Trip Planner

Search our weather history database for the weather conditions in past years. The results will help you decide how hot, cold, wet, or windy it might be!

Date:

Astronomy

Jan. 27, 2013 Rise Set
Actual Time 7:38 AM CST 5:34 PM CST
Civil Twilight 7:09 AM CST 6:04 PM CST
Nautical Twilight 6:36 AM CST 6:37 PM CST
Astronomical Twilight 6:03 AM CST 7:09 PM CST
Moon 6:30 PM CST (1/27) 7:31 AM CST (1/27)
Length of Visible Light 10h 54m
Length of Day
9h 55m
Full, 100% of the Moon is Illuminated
Jan 27
Full
Feb 3
Last Quarter
Feb 10
New
Feb 17
First Quarter
Feb 25
Full

Hourly Weather History & Observations

Time (CST) Temp. Windchill Dew Point Humidity Pressure Visibility Wind Dir Wind Speed Gust Speed Precip Events Conditions
12:55 AM 37.9 °F 30.0 °F 22.8 °F 55% 30.01 in 10.0 mi ESE 12.7 mph - N/A   Overcast
1:55 AM 38.3 °F 31.4 °F 23.2 °F 55% 30.00 in 10.0 mi ESE 10.4 mph - N/A   Overcast
2:16 AM 39.2 °F 33.6 °F 23.0 °F 52% 30.00 in 10.0 mi SE 8.1 mph - N/A   Overcast
2:32 AM 37.4 °F 31.4 °F 26.6 °F 65% 30.01 in 10.0 mi ESE 8.1 mph - N/A Rain Light Rain
2:34 AM 37.4 °F 31.4 °F 26.6 °F 65% 30.01 in 10.0 mi ESE 8.1 mph - N/A Rain Light Rain
2:36 AM 37.4 °F 31.4 °F 26.6 °F 65% 30.01 in 10.0 mi ESE 8.1 mph - N/A Rain Light Rain
2:55 AM 37.8 °F 29.4 °F 30.4 °F 75% 30.00 in 10.0 mi SSE 13.8 mph - 0.00 in Rain Light Rain
3:55 AM 34.5 °F 27.3 °F 34.3 °F 99% 29.98 in 4.0 mi ESE 9.2 mph - 0.06 in Rain Heavy Rain
4:02 AM 33.8 °F 27.0 °F 33.8 °F 100% 29.97 in 5.0 mi ESE 8.1 mph - N/A Rain Rain
4:24 AM 35.6 °F 28.6 °F 33.8 °F 93% 29.96 in 4.0 mi ESE 9.2 mph - N/A Rain Rain
4:28 AM 35.6 °F 28.0 °F 33.8 °F 93% 29.96 in 3.0 mi ESE 10.4 mph - N/A Rain Rain
4:31 AM 35.6 °F 28.0 °F 33.8 °F 93% 29.95 in 3.0 mi ESE 10.4 mph - N/A Rain Rain
4:42 AM 35.6 °F 28.0 °F 35.6 °F 100% 29.95 in 3.0 mi ESE 10.4 mph - N/A Rain Light Rain
4:50 AM 35.6 °F 28.0 °F 35.6 °F 100% 29.94 in 4.0 mi ESE 10.4 mph - N/A Rain Light Rain
4:55 AM 35.2 °F 27.1 °F 34.9 °F 99% 29.94 in 4.0 mi ESE 11.5 mph - 0.11 in Rain Light Rain
5:12 AM 35.6 °F 26.6 °F 35.6 °F 100% 29.94 in 5.0 mi ESE 13.8 mph - N/A Rain Light Rain
5:27 AM 35.6 °F 26.6 °F 35.6 °F 100% 29.92 in 8.0 mi ESE 13.8 mph - N/A Rain Light Rain
5:35 AM 35.6 °F 27.5 °F 35.6 °F 100% 29.92 in 10.0 mi ESE 11.5 mph - N/A   Overcast
5:41 AM 35.6 °F 26.6 °F 35.6 °F 100% 29.92 in 10.0 mi ESE 13.8 mph - N/A   Overcast
5:55 AM 35.6 °F 27.5 °F 35.4 °F 99% 29.91 in 9.0 mi ESE 11.5 mph - 0.01 in   Overcast
6:09 AM 35.6 °F 27.5 °F 35.6 °F 100% 29.89 in 10.0 mi ESE 11.5 mph - N/A   Overcast
6:17 AM 35.6 °F 27.1 °F 35.6 °F 100% 29.91 in 10.0 mi SE 12.7 mph - N/A Rain Light Rain
6:28 AM 35.6 °F 26.2 °F 35.6 °F 100% 29.90 in 10.0 mi SE 15.0 mph - N/A   Overcast
6:55 AM 36.0 °F 27.5 °F 35.6 °F 99% 29.89 in 10.0 mi ESE 12.7 mph - 0.00 in   Mostly Cloudy
7:43 AM 35.6 °F 27.1 °F 35.6 °F 100% 29.89 in 10.0 mi ESE 12.7 mph - N/A Rain Light Rain
7:55 AM 36.3 °F 28.9 °F 36.0 °F 99% 29.88 in 6.0 mi ESE 10.4 mph - 0.01 in Rain Light Rain
8:02 AM 35.6 °F 28.0 °F 35.6 °F 100% 29.88 in 6.0 mi East 10.4 mph - N/A Rain Light Rain
8:17 AM 37.4 °F 31.4 °F 35.6 °F 93% 29.88 in 7.0 mi ESE 8.1 mph - N/A Rain Light Rain
8:21 AM 37.4 °F 31.4 °F 35.6 °F 93% 29.88 in 7.0 mi ESE 8.1 mph - N/A Rain Light Rain
8:37 AM 37.4 °F 30.3 °F 37.4 °F 100% 29.87 in 10.0 mi ESE 10.4 mph - N/A   Overcast
8:38 AM 37.4 °F 30.3 °F 37.4 °F 100% 29.87 in 10.0 mi ESE 10.4 mph - N/A   Overcast
8:53 AM 37.4 °F 30.8 °F 37.4 °F 100% 29.86 in 10.0 mi ESE 9.2 mph - N/A   Overcast
8:55 AM 37.0 °F 30.4 °F 36.7 °F 99% 29.86 in 10.0 mi ESE 9.2 mph - 0.01 in   Overcast
9:01 AM 37.4 °F 30.8 °F 37.4 °F 100% 29.87 in 10.0 mi ESE 9.2 mph - N/A   Overcast
9:03 AM 37.4 °F 30.8 °F 37.4 °F 100% 29.87 in 10.0 mi ESE 9.2 mph - N/A   Overcast
9:04 AM 37.4 °F 30.8 °F 37.4 °F 100% 29.87 in 10.0 mi ESE 9.2 mph - N/A   Overcast
9:06 AM 37.4 °F 30.3 °F 37.4 °F 100% 29.86 in 10.0 mi ESE 10.4 mph - N/A Rain Light Rain
9:16 AM 37.4 °F 30.3 °F 37.4 °F 100% 29.86 in 10.0 mi SE 10.4 mph - N/A   Overcast
9:31 AM 37.4 °F 29.8 °F 37.4 °F 100% 29.84 in 10.0 mi ESE 11.5 mph - N/A   Overcast
9:34 AM 37.4 °F 29.3 °F 37.4 °F 100% 29.85 in 10.0 mi ESE 12.7 mph - N/A Rain Light Rain
9:40 AM 37.4 °F 30.8 °F 37.4 °F 100% 29.85 in 10.0 mi ESE 9.2 mph - N/A Rain Light Rain
9:45 AM 37.4 °F 30.8 °F 37.4 °F 100% 29.85 in 10.0 mi SE 9.2 mph - N/A   Overcast
9:55 AM 37.9 °F 30.5 °F 37.8 °F 99% 29.85 in 10.0 mi SE 11.5 mph - 0.00 in   Overcast
10:09 AM 37.4 °F 30.3 °F 37.4 °F 100% 29.84 in 10.0 mi SE 10.4 mph - N/A   Overcast
10:27 AM 39.2 °F 32.0 °F 39.2 °F 100% 29.83 in 10.0 mi SE 11.5 mph 18.4 mph N/A   Overcast
10:55 AM 39.4 °F 31.4 °F 39.0 °F 99% 29.82 in 7.0 mi SE 13.8 mph - N/A   Overcast
11:11 AM 39.2 °F 31.6 °F 39.2 °F 100% 29.81 in 3.0 mi SE 12.7 mph - N/A   Overcast
11:22 AM 39.2 °F 31.6 °F 39.2 °F 100% 29.81 in 3.0 mi SE 12.7 mph - N/A   Overcast
11:25 AM 39.2 °F 31.6 °F 39.2 °F 100% 29.81 in 2.5 mi SE 12.7 mph - N/A   Overcast
11:33 AM 39.2 °F 32.0 °F 39.2 °F 100% 29.81 in 3.0 mi SE 11.5 mph - N/A   Overcast
11:55 AM 39.7 °F 32.3 °F 39.7 °F 100% 29.80 in 3.0 mi SE 12.7 mph - N/A   Overcast
12:32 PM 41.0 °F 34.3 °F 41.0 °F 100% 29.77 in 3.0 mi SE 11.5 mph - N/A   Overcast
12:35 PM 41.0 °F 34.7 °F 41.0 °F 100% 29.77 in 2.5 mi SE 10.4 mph - N/A   Overcast
12:37 PM 41.0 °F 34.3 °F 41.0 °F 100% 29.77 in 3.0 mi SE 11.5 mph - N/A   Overcast
12:48 PM 41.0 °F 35.2 °F 41.0 °F 100% 29.76 in 2.5 mi SE 9.2 mph - N/A   Overcast
12:55 PM 40.6 °F 34.3 °F 40.6 °F 100% 29.76 in 2.5 mi SE 10.4 mph - N/A   Overcast
1:31 PM 41.0 °F 35.2 °F 41.0 °F 100% 29.74 in 2.0 mi SE 9.2 mph - N/A   Overcast
1:34 PM 41.0 °F 35.2 °F 41.0 °F 100% 29.74 in 2.0 mi SE 9.2 mph - N/A   Light Drizzle
1:46 PM 41.0 °F 34.7 °F 41.0 °F 100% 29.73 in 1.8 mi SE 10.4 mph - N/A   Light Drizzle
1:50 PM 41.0 °F 35.8 °F 41.0 °F 100% 29.73 in 1.8 mi SE 8.1 mph - N/A   Overcast
1:55 PM 40.8 °F 35.0 °F 40.8 °F 100% 29.73 in 1.8 mi SE 9.2 mph - 0.00 in   Overcast
2:17 PM 41.0 °F 36.4 °F 41.0 °F 100% 29.72 in 0.8 mi ESE 6.9 mph - N/A   Mist
2:27 PM 41.0 °F 35.8 °F 41.0 °F 100% 29.72 in 0.5 mi ESE 8.1 mph - N/A Fog Fog
2:45 PM 41.0 °F 35.8 °F 41.0 °F 100% 29.72 in 0.8 mi ESE 8.1 mph - N/A   Mist
2:51 PM 41.0 °F 35.8 °F 41.0 °F 100% 29.72 in 0.5 mi ESE 8.1 mph - N/A Fog Fog
2:55 PM 41.4 °F 36.2 °F 41.4 °F 100% 29.72 in 0.5 mi ESE 8.1 mph - 0.01 in Fog Fog
2:58 PM 41.0 °F 35.8 °F 41.0 °F 100% 29.72 in 0.8 mi ESE 8.1 mph - N/A   Light Drizzle
3:03 PM 41.0 °F 36.4 °F 41.0 °F 100% 29.71 in 0.2 mi ESE 6.9 mph - N/A Fog Fog
3:25 PM 41.0 °F 35.8 °F 41.0 °F 100% 29.71 in 0.2 mi ESE 8.1 mph - N/A Fog Fog
3:29 PM 41.0 °F 35.8 °F 41.0 °F 100% 29.72 in 0.8 mi ESE 8.1 mph - N/A   Mist
3:35 PM 41.0 °F 36.4 °F 41.0 °F 100% 29.71 in 0.5 mi East 6.9 mph - N/A Fog Light Drizzle
3:50 PM 41.0 °F 36.4 °F 41.0 °F 100% 29.71 in 0.2 mi East 6.9 mph - N/A Fog Light Drizzle
3:57 PM 41.0 °F 36.4 °F 41.0 °F 100% 29.79 in 0.2 mi East 6.9 mph - N/A Fog Fog
4:18 PM 41.0 °F 38.0 °F 41.0 °F 100% 29.71 in 0.2 mi East 4.6 mph - N/A Fog Light Drizzle
4:57 PM 42.8 °F 41.1 °F 42.8 °F 100% 29.81 in 0.2 mi ENE 3.5 mph - N/A Fog Fog
5:41 PM 41.0 °F - 41.0 °F 100% 29.73 in 0.8 mi Calm Calm - N/A Rain Light Rain
5:45 PM 41.0 °F - 41.0 °F 100% 29.73 in 0.2 mi Calm Calm - N/A Fog , Rain Light Rain
5:55 PM 41.2 °F - 41.2 °F 100% 29.73 in 0.2 mi Calm Calm - 0.01 in Fog , Rain Light Rain
6:09 PM 41.0 °F 38.0 °F 41.0 °F 100% 29.72 in 0.8 mi ENE 4.6 mph - N/A   Mist
6:48 PM 41.0 °F 37.1 °F 41.0 °F 100% 29.75 in 0.8 mi NW 5.8 mph - N/A   Mist
6:55 PM 40.8 °F 38.8 °F 40.8 °F 100% 29.75 in 0.8 mi NNW 3.5 mph - 0.00 in   Scattered Clouds
7:03 PM 41.0 °F 39.0 °F 41.0 °F 100% 29.75 in 0.5 mi NNW 3.5 mph - N/A Fog Fog
7:36 PM 39.2 °F - 39.2 °F 100% 29.76 in 0.2 mi Calm Calm - N/A Fog Fog
7:55 PM 40.1 °F 36.9 °F 40.1 °F 100% 29.77 in 0.5 mi NW 4.6 mph - N/A Fog Fog
8:43 PM 39.2 °F 35.9 °F 39.2 °F 100% 29.78 in 0.2 mi WNW 4.6 mph - N/A Fog Fog
8:55 PM 39.4 °F 35.2 °F 39.4 °F 100% 29.78 in 0.2 mi WNW 5.8 mph - N/A Fog Fog
9:39 PM 39.2 °F 34.2 °F 39.2 °F 100% - 0.2 mi WNW 6.9 mph - N/A Fog Fog
9:55 PM 39.9 °F 34.5 °F 39.9 °F 100% 29.80 in 0.5 mi WNW 8.1 mph - N/A Fog Fog
10:34 PM 39.2 °F 34.2 °F 39.2 °F 100% 29.78 in 4.0 mi WNW 6.9 mph - N/A   Overcast
10:55 PM 39.4 °F 33.2 °F 39.4 °F 100% - 3.0 mi WNW 9.2 mph - N/A   Overcast
11:00 PM 39.2 °F 34.2 °F 39.2 °F 100% 29.82 in 3.0 mi WNW 6.9 mph - N/A   Overcast
11:16 PM 39.2 °F 33.0 °F 39.2 °F 100% 29.82 in 2.5 mi WNW 9.2 mph - N/A   Overcast
11:39 PM 37.4 °F 32.8 °F 37.4 °F 100% 29.83 in 2.0 mi West 5.8 mph - N/A   Scattered Clouds
11:44 PM 37.4 °F - 37.4 °F 100% 29.83 in 1.8 mi Calm Calm - N/A   Partly Cloudy
11:55 PM 37.8 °F 33.3 °F 37.8 °F 100% 29.84 in 1.5 mi WNW 5.8 mph - N/A   Clear